[[{"header":{"parameterUnit":"m.s-1","parameterCategory":1,"la1":30.2991,"la2":30.254,"lo1":-89.0895,"lo2":-89.0444,"dy":0.0017,"dx":0.0017,"nx":28,"ny":28,"refTime":"2023-10-05T09:00:00:Z","depth":0,"parameterNumber":2,"parameterNumberName":"U-component_of_WINDS"},"data":[0,0,0,0,0,0,0,0,0,0,0,0,0,0,0,0,0,0,0,0,0,0,0,0,0,0,0,0,0,0,0,0,0,0,0,0,0,0,0,0,0,0,0,0,0,0,0,0,0,0,0,0,0,0,0,0,0,0,-2.8029,-2.803,0,-2.8074,-2.8074,-2.8075,-2.8051,-2.8049,-2.8048,-2.8047,-2.8095,-2.8097,-2.81,0,0,0,0,0,0,0,0,0,0,0,0,0,-2.7926,-2.7928,-2.8029,-2.803,-2.8031,-2.8074,-2.8074,-2.8075,-2.8051,-2.8049,-2.8048,-2.8046,-2.8094,-2.8097,-2.81,0,0,0,0,0,0,0,0,0,0,0,0,0,-2.7971,-2.7928,-2.8029,-2.8024,-2.8023,-2.8074,-2.8074,-2.8075,-2.8051,-2.8049,-2.8047,-2.8046,-2.8093,-2.8097,-2.81,-2.8159,0,0,-2.8111,-2.8113,0,0,0,0,0,0,0,0,-2.7968,-2.7974,-2.8024,-2.8024,-2.8024,-2.8055,-2.8055,-2.8103,-2.8052,-2.8041,-2.8047,-2.8045,-2.8083,-2.8087,-2.81,-2.8162,-2.8164,-2.8112,-2.8114,-2.8115,-2.8116,0,0,0,0,0,0,0,-2.7965,-2.7972,-2.8047,-2.8025,-2.8025,-2.8019,-2.8024,-2.8064,-2.8072,-2.8041,-2.804,-2.8045,-2.8083,-2.8096,-2.8101,-2.8164,-2.8112,-2.8115,-2.8117,-2.8118,-2.8276,-2.8278,0,0,0,0,0,0,-2.7962,-2.797,-2.8046,-2.8048,-2.7991,-2.8023,-2.8028,-2.8047,-2.8071,-2.8073,-2.8047,-2.8044,-2.8091,-2.8097,-2.8102,-2.8172,-2.8115,-2.8119,-2.8121,-2.8274,-2.8276,-2.8278,0,0,0,0,0,0,-2.796,-2.7969,-2.8044,-2.8009,-2.8018,-2.8026,-2.8048,-2.8049,-2.8062,-2.8075,-2.8077,-2.8059,-2.809,-2.8097,-2.8145,-2.8173,-2.812,-2.8124,-2.8271,-2.8274,-2.8277,-2.8312,0,0,0,0,0,0,-2.7957,-2.7968,-2.799,-2.8009,-2.802,-2.8085,-2.805,-2.8051,-2.8068,-2.8065,-2.8087,-2.8089,-2.8089,-2.814,-2.8148,-2.8177,-2.8127,-2.8269,-2.8273,-2.8276,-2.8308,-2.8316,-2.8322,0,0,0,0,0,-2.7953,-2.7999,-2.7991,-2.8001,-2.8047,-2.8087,-2.8093,-2.8091,-2.8071,-2.8093,-2.8101,-2.8088,-2.8169,-2.8145,-2.8154,-2.8185,-2.8267,-2.8272,-2.8276,-2.8305,-2.8314,-2.8322,0,0,0,0,0,0,-2.7984,-2.8002,-2.7993,-2.8047,-2.8065,-2.8082,-2.811,-2.8101,-2.8126,-2.8122,-2.812,-2.8125,-2.8174,-2.8185,-2.8157,-2.8243,-2.8215,-2.8222,-2.8234,-2.8243,-2.825,-2.8245,-2.813,0,0,0,0,0,-2.7997,-2.8027,-2.8041,-2.8087,-2.8096,-2.8102,-2.8119,-2.8116,-2.8135,-2.8143,-2.8155,-2.8175,-2.8205,-2.8225,-2.8253,-2.831,-2.8315,-2.8336,-2.8343,-2.8349,-2.8354,-2.8384,-2.8394,-2.8293,-2.8293,-2.8293,0,0,-2.8025,-2.8038,-2.8057,-2.8093,-2.8107,-2.8138,-2.8109,-2.8143,-2.8166,-2.8149,-2.8194,-2.8204,-2.8226,-2.8278,-2.8302,-2.8288,-2.8383,-2.8355,-2.8359,-2.8361,-2.839,-2.8399,-2.8408,-2.8296,-2.8296,-2.8295,0,0,-2.8089,-2.8103,-2.8142,-2.8156,-2.8177,-2.8181,-2.819,-2.8209,-2.8214,-2.8259,-2.8246,-2.8274,-2.8326,-2.8342,-2.8357,-2.8428,-2.8417,-2.8437,-2.8473,-2.8502,-2.851,-2.8517,-2.8541,-2.855,-2.8443,-2.8443,-2.8443,0,-2.8121,-2.8166,-2.8163,-2.8198,-2.8214,-2.8199,-2.8238,-2.8253,-2.8283,-2.8295,-2.8279,-2.8343,-2.8357,-2.8412,-2.8429,-2.8442,-2.8453,-2.8434,-2.8509,-2.8516,-2.8523,-2.8546,-2.8555,-2.8445,-2.8445,-2.8445,-2.8445,0,-2.8203,-2.8235,-2.8264,-2.8291,-2.8311,-2.8348,-2.8351,-2.8371,-2.8367,-2.8372,-2.8418,-2.8435,-2.8465,-2.8479,-2.8475,-2.8533,-2.8524,-2.8509,-2.8481,-2.8535,-2.8556,-2.8565,-2.8448,-2.8448,-2.8447,-2.8446,0,0,-2.8288,-2.8313,-2.8324,-2.8335,-2.8357,-2.8382,-2.8419,-2.8448,-2.8465,-2.8487,-2.8517,-2.8561,-2.8546,-2.8563,-2.8562,-2.8588,-2.8641,-2.857,-2.857,-2.8581,-2.8705,-2.8715,-2.8725,-2.8635,-2.8637,-2.8638,-2.8703,0,-2.8354,-2.8416,-2.8414,-2.8472,-2.8501,-2.8487,-2.8519,-2.8536,-2.8542,-2.8568,-2.8575,-2.8606,-2.8586,-2.8596,-2.8621,-2.8629,-2.8666,-2.8625,-2.8663,-2.8664,-2.8656,-2.8737,-2.8748,-2.8808,-2.8712,-2.8713,-2.8714,0,-2.8438,-2.846,-2.8521,-2.8537,-2.8549,-2.8578,-2.8603,-2.8629,-2.8648,-2.8651,-2.867,-2.8664,-2.8701,-2.8673,-2.8724,-2.8696,-2.8712,-2.8719,-2.8721,-2.8723,-2.8691,-2.874,-2.8828,-2.8836,-2.8727,-2.8726,-2.8725,0,-2.8492,-2.8538,-2.8579,-2.859,-2.8611,-2.8631,-2.8641,-2.8659,-2.8676,-2.8699,-2.871,-2.8738,-2.8753,-2.8775,-2.8778,-2.8757,-2.8829,-2.8801,-2.8832,-2.8832,-2.8847,-2.8846,-2.8937,-2.886,-2.8859,-2.8859,-2.8859,0,-2.8564,-2.8601,-2.8603,-2.8629,-2.867,-2.8668,-2.871,-2.8718,-2.8733,-2.8761,-2.8752,-2.8778,-2.878,-2.8807,-2.8809,-2.8851,-2.8858,-2.8861,-2.8861,-2.8861,-2.886,-2.887,-2.8865,-2.8862,-2.8861,-2.8861,-2.886,0,-2.8631,-2.8634,-2.8678,-2.8694,-2.8699,-2.8729,-2.8743,-2.8767,-2.8772,-2.8807,-2.8815,-2.8823,-2.8854,-2.8859,-2.8896,-2.8898,-2.8947,-2.8944,-2.894,-2.8939,-2.8969,-2.8966,-2.9069,-2.9082,-2.8997,-2.8998,-2.8999,0,-2.8676,-2.8704,-2.8723,-2.8739,-2.875,-2.8778,-2.8794,-2.8794,-2.8812,-2.8836,-2.8858,-2.8888,-2.8912,-2.8962,-2.8972,-2.9001,-2.8997,-2.9031,-2.9001,-2.9,-2.8996,-2.8993,-2.8996,-2.9036,-2.9037,-2.9038,-2.9039,0,-2.8756,-2.8755,-2.878,-2.8804,-2.8824,-2.8844,-2.8863,-2.8878,-2.8879,-2.8901,-2.8931,-2.895,-2.8987,-2.9017,-2.9045,-2.9056,-2.9048,-2.9048,-2.9056,-2.9056,-2.9052,-2.9053,-2.8954,-2.9045,-2.9045,-2.9044,-2.9044,-2.9044,-2.8812,-2.8836,-2.8852,-2.8879,-2.8893,-2.891,-2.8933,-2.8941,-2.8966,-2.8995,-2.8993,-2.9027,-2.9046,-2.9082,-2.9096,-2.9123,-2.9112,-2.9124,-2.9127,-2.913,-2.9132,-2.9049,-2.9128,-2.9128,-2.9128,-2.9128,-2.9127,0,-2.889,-2.8899,-2.8924,-2.8949,-2.8971,-2.896,-2.898,-2.8999,-2.9028,-2.9046,-2.9069,-2.9104,-2.9133,-2.9145,-2.9173,-2.9193,-2.919,-2.92,-2.9198,-2.9201,-2.9141,-2.913,-2.9202,-2.9202,-2.9202,-2.9202,-2.9202,-2.9202,-2.8933,-2.8972,-2.8973,-2.9019,-2.9028,-2.906,-2.9072,-2.9088,-2.9102,-2.9141,-2.9164,-2.9171,-2.9187,-2.9216,-2.9242,-2.9245,-2.9256,-2.9268,-2.9269,-2.9213,-2.9205,-2.9198,-2.9187,-2.927,-2.927,-2.9326,-2.9327,-2.9327]},{"header":{"parameterUnit":"m.s-1","parameterCategory":1,"la1":30.2991,"la2":30.254,"lo1":-89.0895,"lo2":-89.0444,"dy":0.0017,"dx":0.0017,"nx":28,"ny":28,"refTime":"2023-10-05T09:00:00:Z","depth":0,"parameterNumber":3,"parameterNumberName":"V-component_of_WINDS"},"data":[0,0,0,0,0,0,0,0,0,0,0,0,0,0,0,0,0,0,0,0,0,0,0,0,0,0,0,0,0,0,0,0,0,0,0,0,0,0,0,0,0,0,0,0,0,0,0,0,0,0,0,0,0,0,0,0,0,0,3.0618,3.0617,0,3.0574,3.0574,3.0573,3.0513,3.0512,3.051,3.051,3.0465,3.0464,3.0464,0,0,0,0,0,0,0,0,0,0,0,0,0,3.0648,3.0647,3.0618,3.0617,3.0617,3.0574,3.0574,3.0573,3.0513,3.0511,3.051,3.0509,3.0465,3.0465,3.0464,0,0,0,0,0,0,0,0,0,0,0,0,0,3.0623,3.0647,3.0618,3.0581,3.0578,3.0575,3.0574,3.0573,3.0513,3.0511,3.051,3.0508,3.0465,3.0465,3.0464,3.0493,0,0,3.0463,3.0463,0,0,0,0,0,0,0,0,3.0624,3.0621,3.0587,3.0584,3.058,3.0547,3.0568,3.0546,3.0513,3.0538,3.0509,3.0508,3.0493,3.0491,3.0486,3.0491,3.0489,3.0463,3.0463,3.0463,3.0463,0,0,0,0,0,0,0,3.0626,3.0623,3.0601,3.0587,3.0582,3.0567,3.0562,3.0563,3.0525,3.0535,3.0531,3.0527,3.0491,3.0486,3.0484,3.0488,3.0463,3.0463,3.0463,3.0462,3.0513,3.0515,0,0,0,0,0,0,3.0633,3.0625,3.0602,3.0599,3.0599,3.0568,3.0562,3.0559,3.0525,3.0518,3.0528,3.0524,3.0488,3.0485,3.0483,3.0513,3.0463,3.0462,3.0462,3.0512,3.0514,3.0515,0,0,0,0,0,0,3.0634,3.0632,3.0604,3.0611,3.0606,3.0569,3.0566,3.0559,3.0554,3.0519,3.0512,3.053,3.0486,3.0483,3.0491,3.051,3.0462,3.0462,3.051,3.0512,3.0515,3.0574,0,0,0,0,0,0,3.0635,3.0632,3.0643,3.0612,3.0606,3.0613,3.0568,3.0559,3.0554,3.0548,3.0519,3.0513,3.0485,3.0491,3.049,3.0509,3.0462,3.0508,3.0511,3.0514,3.057,3.0578,3.0585,0,0,0,0,0,3.0636,3.0662,3.0644,3.0642,3.0619,3.0614,3.0611,3.0578,3.0556,3.0566,3.0543,3.0514,3.0509,3.0493,3.0491,3.051,3.0507,3.051,3.0514,3.0567,3.0577,3.0585,0,0,0,0,0,0,3.0697,3.0657,3.0637,3.0653,3.0637,3.0604,3.0616,3.059,3.058,3.0575,3.0535,3.0529,3.0542,3.0527,3.0509,3.0535,3.0503,3.0506,3.0544,3.0553,3.0561,3.0563,3.0461,0,0,0,0,0,3.0712,3.0712,3.0677,3.0695,3.0688,3.0654,3.065,3.0627,3.0609,3.0602,3.0579,3.0563,3.0558,3.0555,3.0548,3.0568,3.056,3.058,3.0588,3.0594,3.0597,3.0605,3.0613,3.0527,3.0527,3.0527,0,0,3.0743,3.0722,3.0724,3.0706,3.0691,3.0692,3.0648,3.0651,3.065,3.0602,3.0607,3.0591,3.057,3.0583,3.0588,3.0571,3.0619,3.0599,3.0604,3.0603,3.0609,3.0618,3.0625,3.0529,3.0529,3.0528,0,0,3.08,3.0785,3.0797,3.0783,3.0761,3.0738,3.0741,3.0711,3.0698,3.0703,3.0666,3.0665,3.0657,3.0643,3.0635,3.0686,3.0658,3.0685,3.0724,3.0732,3.0739,3.0745,3.0761,3.0768,3.0689,3.0689,3.0689,0,3.0842,3.0841,3.0806,3.081,3.0803,3.076,3.0772,3.076,3.0737,3.0733,3.0714,3.0702,3.0685,3.0694,3.0707,3.0702,3.0703,3.0688,3.0741,3.0746,3.0751,3.0767,3.0773,3.0692,3.0692,3.0691,3.0691,0,3.0892,3.0892,3.0905,3.0884,3.0878,3.0886,3.0852,3.0851,3.0828,3.0806,3.0811,3.0789,3.0776,3.0777,3.0755,3.0783,3.0773,3.0748,3.0715,3.0763,3.0777,3.0783,3.0697,3.0696,3.0695,3.0694,0,0,3.0985,3.0945,3.095,3.0939,3.0912,3.0911,3.0917,3.0904,3.0903,3.0889,3.0892,3.0886,3.0863,3.0853,3.0829,3.0837,3.0877,3.0811,3.081,3.0823,3.0905,3.0922,3.093,3.0859,3.086,3.086,3.0906,0,3.1036,3.1043,3.1012,3.1028,3.1027,3.0986,3.099,3.0974,3.0954,3.095,3.0928,3.0924,3.0894,3.0888,3.0894,3.0871,3.0892,3.0867,3.086,3.086,3.0865,3.0937,3.0956,3.1,3.0911,3.0912,3.0913,0,3.1095,3.1084,3.1099,3.107,3.1069,3.1074,3.1059,3.1056,3.1036,3.1021,3.1011,3.0983,3.0986,3.0955,3.0958,3.0941,3.0936,3.0925,3.0925,3.0922,3.0888,3.0935,3.1013,3.1019,3.0921,3.0921,3.092,0,3.116,3.1148,3.1156,3.1148,3.1115,3.1119,3.1106,3.1084,3.1078,3.1066,3.1062,3.105,3.1043,3.1034,3.1003,3.0984,3.1009,3.0976,3.0995,3.0996,3.1001,3.1001,3.1078,3.1001,3.1001,3.1001,3.1001,0,3.1218,3.1229,3.1184,3.1189,3.1199,3.1163,3.1175,3.1157,3.1138,3.1138,3.1102,3.1102,3.1062,3.1058,3.1033,3.1038,3.1036,3.1023,3.1016,3.1025,3.1027,3.1021,3.1016,3.1002,3.1002,3.1002,3.1001,0,3.1291,3.1262,3.1267,3.1235,3.1227,3.1236,3.1209,3.1211,3.1189,3.1189,3.1187,3.1153,3.1146,3.1114,3.11,3.1083,3.1096,3.1084,3.1103,3.1098,3.1119,3.1116,3.1194,3.1201,3.1121,3.1121,3.1122,0,3.133,3.1337,3.1306,3.1303,3.1291,3.1288,3.1281,3.1247,3.1242,3.1219,3.1224,3.1214,3.1204,3.1195,3.1168,3.1156,3.1142,3.117,3.114,3.1149,3.1141,3.114,3.114,3.1176,3.1177,3.1178,3.1179,0,3.14,3.1386,3.1378,3.1366,3.136,3.1348,3.1335,3.1335,3.1296,3.1292,3.1284,3.1277,3.1262,3.1252,3.1236,3.1221,3.1193,3.1189,3.1192,3.1201,3.1211,3.1204,3.1118,3.1187,3.1186,3.1185,3.1185,3.1185,3.1456,3.146,3.1439,3.1432,3.1418,3.1406,3.1406,3.1385,3.1378,3.1363,3.1343,3.1338,3.1317,3.1292,3.1279,3.1274,3.1259,3.1264,3.1265,3.1267,3.1271,3.1213,3.1271,3.1271,3.1271,3.127,3.127,0,3.1524,3.1508,3.1502,3.1484,3.1478,3.1454,3.1437,3.1434,3.143,3.1413,3.1404,3.1395,3.1385,3.1357,3.1344,3.1345,3.1332,3.1343,3.1342,3.1338,3.1286,3.1284,3.1354,3.1354,3.1354,3.1354,3.1354,3.1354,3.1558,3.1563,3.1546,3.1543,3.1527,3.1522,3.1515,3.1503,3.1489,3.1481,3.1473,3.1455,3.1433,3.1419,3.1408,3.14,3.1396,3.1411,3.1399,3.135,3.1342,3.1335,3.1332,3.1411,3.1411,3.1451,3.1451,3.1452]}]]